Regional Weather Roundup
Issued by NWS San Diego, CA

Home | Current Version | Previous Version | Text Only | Print | Product List | Glossary On
Versions: 1 2 3 4 5 6 7 8 9 10 11 12 13 14 15 16 17 18 19 20 21 22 23 24 25 26 27 28 29 30 31 32 33 34 35 36 37 38 39 40 41 42 43 44 45 46 47 48 49 50
000
ASUS46 KSGX 232110
RWRSGX

SAN DIEGO HOURLY WEATHER ROUNDUP
NATIONAL WEATHER SERVICE SAN DIEGO CA
100 PM PST SUN NOV 23 2014

NOTE: "FAIR" INDICATES FEW OR NO CLOUDS BELOW 12,000 FEET WITH NO
SIGNIFICANT WEATHER AND/OR OBSTRUCTIONS TO VISIBILITY.

CAZ042-043-060-061-PZZ750-775-232200-

GREATER SAN DIEGO AREA

CITY           SKY/WX    TMP DP  RH WIND       PRES   REMARKS
LINDBERGH FLD  PTSUNNY   70  53  54 NW9       30.07F
POINT LOMA       N/A     64  55  72 NW23        N/A
NATIONAL CITY    N/A     71  57  60 NW3       30.05F
CHULA VISTA      N/A     71  56  58 W8        29.98F
IMPERIAL BEACH MOSUNNY   70  56  61 NW16      30.06F
BROWN FIELD    MOSUNNY   71  50  47 W6        30.04F
MIRAMAR MCAS   PTSUNNY   72  49  44 NW8       30.05F
MONTGOMERY FLD MOSUNNY   73  50  44 NW9       30.05F

$$

NORTH SAN DIEGO COUNTY

CITY           SKY/WX    TMP DP  RH WIND       PRES   REMARKS
CAMP PENDLETON MOSUNNY   74  51  44 S13       30.04F
OCEANSIDE AP   MOSUNNY   70  56  61 W9        30.04F
OCEANSIDE HBR    N/A     66  60  81 W12       30.08F
VISTA            N/A     78  36  22 CALM      30.03F
CARLSBAD       MOSUNNY   68  55  63 W9        30.04F
DEL MAR          N/A     69  59  70 CALM      30.08F
LA JOLLA SCRIP   N/A     65  59  81 CALM      30.04F
FALLBROOK        N/A     77  21  12 S7        30.05F
ESCONDIDO        N/A     76  40  27 S1        30.06F
SAN MARCOS       N/A     78  37  22 CALM      30.04F
POWAY            N/A     73  49  42 CALM      30.07F

$$

EAST SAN DIEGO COUNTY

CITY           SKY/WX    TMP DP  RH WIND       PRES   REMARKS
RAMONA         MOSUNNY   74  16  11 E14       30.06F
SANTEE LAKES     N/A     74  52  45 W7        30.06F
LA MESA          N/A     72  53  52 W5        30.00F
JAMUL            N/A     71  45  39 W7        30.05F
DESCANSO N       N/A     60  16  17 NE15      29.99F
MT. LAGUNA OBS   N/A     43  10  25 NE10      29.74S
CAMPO            N/A     63   9  12 NE29G43   30.06F

$$

ORANGE COUNTY AND THE LOS ANGELES BASIN

CITY           SKY/WX    TMP DP  RH WIND       PRES   REMARKS
JOHN WAYNE AP  MOSUNNY   85  -3   3 NE13G28   30.05F
LAKE FOREST FR   N/A     78   9   7 NE9       29.96F
SANTA ANA        N/A     81  22  11 N3        30.01F
HUNTINGTON BCH   N/A     78  37  22 CALM      30.08F
LOS ALAMITOS   MOSUNNY   78  34  20 VRB3      30.06F
FULLERTON      SUNNY     79  32  18 CALM      30.05F
LONG BEACH     SUNNY     76  36  23 CALM      30.07F
L.A. AP        MOSUNNY   74  38  27 S12       30.07F
L.A. DOWNTOWN  SUNNY     78  40  25 CALM      30.06F

$$

THE INLAND EMPIRE

CITY           SKY/WX    TMP DP  RH WIND       PRES   REMARKS
CORONA         SUNNY     77   0   5 NE21G29   30.09F
CHINO          MOSUNNY   78  10   7 NE9G22    30.07F
ONTARIO        MOSUNNY   79  14   8 N10G18    30.07F
SAN BERNARDINO MOSUNNY   75  -2   5 N29G41    30.08F
RIVERSIDE AP   SUNNY     75   6   7 N17G35    30.08F
RIV CYN CREST    N/A     74  27  17 SE9         N/A
MORENO VALLEY    N/A     76  17  11 S3        29.29F
MARCH ARB      SUNNY     74   7   7 NW6       30.10F
HORSETHIEF CYN   N/A     71   7   8 N10       30.13F
PERRIS           N/A     72  19  13 NE7       30.11F
MENIFEE          N/A     76  23  13 NE7       30.15F
HEMET EAST       N/A     70  30  22 CALM      30.09F
FRENCH VALLEY  FAIR      73  19  13 N6        30.08S
TEMECULA         N/A     75  28  17 W7        30.02F

$$

SAN BERNARDINO AND RIVERSIDE COUNTY MOUNTAINS

CITY           SKY/WX    TMP DP  RH WIND       PRES   REMARKS
BIG BEAR AP    SUNNY     45  -4  13 E16       30.31R
ANGELUS OAKS     N/A     53   6  15 NE2       30.09S
PINE COVE        N/A     54  19  25 CALM      30.02F

$$

SOUTHERN DESERT INCLUDING THE COACHELLA VALLEY

CITY           SKY/WX    TMP DP  RH WIND       PRES   REMARKS
PALM SPRINGS   SUNNY     77   3   5 NE12G21   30.17F
THOUSAND PALMS   N/A     75  13   9 N9        30.13S
PALM DESERT      N/A     78  17  10 CALM      26.10S
THERMAL        SUNNY     77   7   7 NW7G22    30.12F
BLYTHE         MOSUNNY   73   7   7 N26G37    30.12S HAZE
IMPERIAL AP    PTSUNNY   76  20  12 N17       30.10F
EL CENTRO NAS  MOSUNNY   76  19  11 N17       30.12F
YUMA AZ        PTSUNNY   76   5   6 N21G30    30.08F
MEXICALI       PTSUNNY   75   7   7 N16       30.10

$$

UPPER DESERT

CITY           SKY/WX    TMP DP  RH WIND       PRES   REMARKS
VICTORVILLE AP SUNNY     61  10  13 NE5       30.26F
HESPERIA         N/A     61  13  15 E10       30.34S
APPLE VALLEY     N/A     62   8  11 E2        30.27S
PALMDALE       SUNNY     64  11  12 E20       30.24F
LANCASTER      SUNNY     63  17  17 NE15      30.25F
EDWARDS AFB    MOSUNNY   63  17  16 NE7       30.23F
DAGGETT        SUNNY     66   5   9 NE10      30.24F
29 PALMS N     SUNNY     65  12  12 N16G24    30.28F
NEEDLES        SUNNY     70  10  10 N20G28    30.19F

$$

REGIONAL REPORTS

CITY           SKY/WX    TMP DP  RH WIND       PRES   REMARKS
SANTA BARBARA  SUNNY     74  37  26 SW8       30.14F
SANDBERG       SUNNY     56  20  24 NE15G26   30.27S
MT. WILSON       N/A     59  -2   8 MISG        N/A
LAS VEGAS NV   MOSUNNY   62  12  14 NW12      30.20F
PHOENIX AZ     MOSUNNY   73  12   9 NW15G21   30.00F
TIJUANA        CLOUDY    72  46  40 NW9       30.07F
ENSENADA NW      N/A     71  32  23 S2        29.97F

$$

OFFSHORE ISLANDS

CITY           SKY/WX    TMP DP  RH WIND       PRES   REMARKS
CATALINA ARPT  SUNNY     67  35  30 NW10      30.13F
SAN NICOLAS IS SUNNY    N/A N/A N/A NW22      30.13F

$$

MARINE AND OFFSHORE BUOY REPORTS

STATION/POSITION SKY/WX   TEMP    WIND        PRES    SWELL
                          AIR SEA DIR/SP/G            HT/PER/DIR
                          (F)     (DEG/KT/KT) (MB)    (FT/S/D)
TANNER BANKS               64 65  340/ 16/ 19 1019.5F   8/310/14
S CLEMENTE BASIN           66 67  350/  4/  6 1018.4F   7/290/ 8
SAN NICOLAS IS.               63                N/A     7/300/15
SO. S. ROSA ISLA           63 63  340/ 10/ 14 1020.4F  10/15
W. S. BARBARA CH           63 61  330/ 17/ 21 1021.0F   8/310/12
S. MONICA BASIN            69 66  320/ 10/ 12 1019.8F   3/270/13
S PEDRO CHANNEL               67                N/A     2/220/14
DANA POINT                    67                N/A     2/230/14
CMP PENDLETON NS              67                N/A     2/220/14
OCEANSIDE OFFSHR              67                N/A     2/230/14
TORREY PINES OTR              67                N/A     2/240/13
LA JOLLA 1                 66 66  310/  5/  6 1018.1S
MISSION BAY BUOY              67                N/A     2/280/13
SAN DIEGO BAY                 67              1018.3S
POINT LOMA SOUTH              67                N/A     3/270/13

$$




USA.gov is the U.S. government's official web portal to all federal, state and local government web resources and services.